,,,PA_Meas_PMT16A,,PR_Meas_QMR101_102,,RH_Meas_QMH101,,SR_Meas_QMS101,,TA_Meas_QMH101,,GenWind,,GenWind,
date,time,status,PA,status,PR,status,RH,status,SR,status,TA,status,DirAvg,status,SpdAvg,
2010-08-05, 00:00:05,VALID,1010.52,VALID,0,VALID,102.208,VALID,0,VALID,24.1988,VALID,77,VALID,0.0324219,
2010-08-05, 00:01:05,VALID,1010.53,VALID,0,VALID,102.2,VALID,0.105969,VALID,24.1988,VALID,77,VALID,0.271484,
2010-08-05, 00:02:05,VALID,1010.47,VALID,0,VALID,102.2,VALID,0,VALID,24.2183,VALID,80,VALID,0.530469,
2010-08-05, 00:03:05,VALID,1010.46,VALID,0,VALID,102.208,VALID,0,VALID,24.2183,VALID,83,VALID,0.501562,
2010-08-05, 00:04:05,VALID,1010.45,VALID,0,VALID,102.177,VALID,0.105969,VALID,24.2183,VALID,83,VALID,0.558984,
2010-08-05, 00:05:05,VALID,1010.38,VALID,0,VALID,102.177,VALID,0,VALID,24.2183,VALID,89,VALID,0.49375,
2010-08-05, 00:06:05,VALID,1010.37,VALID,0,VALID,102.132,VALID,0.105969,VALID,24.2183,VALID,66,VALID,0.539453,
2010-08-05, 00:07:05,VALID,1010.36,VALID,0,VALID,102.139,VALID,0,VALID,24.1988,VALID,65,VALID,0.614844,
2010-08-05, 00:08:05,VALID,1010.33,VALID,0,VALID,102.109,VALID,0.105969,VALID,24.1793,VALID,66,VALID,0.456641,
2010-08-05, 00:09:05,VALID,1010.33,VALID,0,VALID,102.139,VALID,0.105969,VALID,24.2202,VALID,88,VALID,1.09141,
2010-08-05, 00:10:05,VALID,1010.31,VALID,0,VALID,102.132,VALID,0,VALID,24.2183,VALID,116,VALID,1.15937,
2010-08-05, 00:11:05,VALID,1010.29,VALID,0,VALID,102.147,VALID,0,VALID,24.2183,VALID,108,VALID,0.844922,
2010-08-05, 00:12:05,VALID,1010.28,VALID,0,VALID,102.109,VALID,0,VALID,24.2591,VALID,109,VALID,0.860156,
2010-08-05, 00:13:05,VALID,1010.26,VALID,0,VALID,102.086,VALID,0.105969,VALID,24.2183,VALID,106,VALID,1.0375,
2010-08-05, 00:14:05,VALID,1010.25,VALID,0,VALID,102.04,VALID,0,VALID,24.2378,VALID,106,VALID,1.14336,
2010-08-05, 00:15:05,VALID,1010.26,VALID,0,VALID,102.002,VALID,0.105969,VALID,24.2378,VALID,108,VALID,0.977734,
2010-08-05, 00:16:05,VALID,1010.26,VALID,0,VALID,101.964,VALID,0.105969,VALID,24.2378,VALID,108,VALID,0.766797,
2010-08-05, 00:17:05,VALID,1010.29,VALID,0,VALID,101.972,VALID,0.105969,VALID,24.2378,VALID,87,VALID,0.735547,
2010-08-05, 00:18:05,VALID,1010.27,VALID,0,VALID,101.964,VALID,0,VALID,24.2378,VALID,24,VALID,0.519531,
2010-08-05, 00:19:05,VALID,1010.27,VALID,0,VALID,101.964,VALID,0,VALID,24.2183,VALID,54,VALID,0.890625,
2010-08-05, 00:20:05,VALID,1010.26,VALID,0,VALID,101.941,VALID,0,VALID,24.2007,VALID,62,VALID,0.378125,
2010-08-05, 00:21:05,VALID,1010.21,VALID,0,VALID,101.949,VALID,0,VALID,24.1812,VALID,82,VALID,1.31094,
2010-08-05, 00:22:05,VALID,1010.22,VALID,0,VALID,101.994,VALID,0,VALID,24.1617,VALID,90,VALID,0.971484,
2010-08-05, 00:23:05,VALID,1010.2,VALID,0,VALID,102.063,VALID,0,VALID,24.1617,VALID,96,VALID,0.791797,
2010-08-05, 00:24:05,VALID,1010.22,VALID,0,VALID,102.124,VALID,0,VALID,24.1617,VALID,71,VALID,0.757031,
2010-08-05, 00:25:04,VALID,1010.23,VALID,0,VALID,102.177,VALID,0,VALID,24.1617,VALID,79,VALID,0.527734,
2010-08-05, 00:26:04,VALID,1010.2,VALID,0,VALID,102.238,VALID,0,VALID,24.1422,VALID,70,VALID,0.683984,
2010-08-05, 00:27:04,VALID,1010.22,VALID,0,VALID,102.246,VALID,0,VALID,24.1635,VALID,70,VALID,0.785937,
2010-08-05, 00:28:04,VALID,1010.23,VALID,0,VALID,102.246,VALID,0,VALID,24.144,VALID,82,VALID,0.986328,
2010-08-05, 00:29:04,VALID,1010.26,VALID,0,VALID,102.231,VALID,0,VALID,24.1245,VALID,78,VALID,0.595703,
2010-08-05, 00:30:04,VALID,1010.28,VALID,0,VALID,102.277,VALID,0,VALID,24.1245,VALID,50,VALID,0.801562,
2010-08-05, 00:31:04,VALID,1010.22,VALID,0,VALID,102.277,VALID,0,VALID,24.1051,VALID,76,VALID,0.469922,
2010-08-05, 00:32:04,VALID,1010.2,VALID,0,VALID,102.322,VALID,0,VALID,24.1051,VALID,90,VALID,0.791797,
2010-08-05, 00:33:04,VALID,1010.19,VALID,0,VALID,102.353,VALID,0,VALID,24.0643,VALID,85,VALID,0.942187,
2010-08-05, 00:34:04,VALID,1010.21,VALID,0,VALID,102.391,VALID,0,VALID,24.0643,VALID,92,VALID,0.944531,
2010-08-05, 00:35:04,VALID,1010.23,VALID,0,VALID,102.391,VALID,0,VALID,24.0448,VALID,89,VALID,0.605469,
2010-08-05, 00:36:04,VALID,1010.22,VALID,0,VALID,102.414,VALID,0.105969,VALID,24.0235,VALID,96,VALID,0.716406,
2010-08-05, 00:37:04,VALID,1010.2,VALID,0,VALID,102.444,VALID,0,VALID,24.0253,VALID,90,VALID,0.514844,
2010-08-05, 00:38:04,VALID,1010.21,VALID,0,VALID,102.505,VALID,0.105969,VALID,24.0235,VALID,92,VALID,0.735156,
2010-08-05, 00:39:04,VALID,1010.22,VALID,0,VALID,102.521,VALID,0,VALID,24.0235,VALID,105,VALID,0.660937,
2010-08-05, 00:40:04,VALID,1010.2,VALID,0,VALID,102.551,VALID,0.105969,VALID,24.0429,VALID,96,VALID,0.834766,
2010-08-05, 00:41:04,VALID,1010.21,VALID,0,VALID,102.582,VALID,0.105969,VALID,24.0643,VALID,125,VALID,0.907812,
2010-08-05, 00:42:04,VALID,1010.17,VALID,0,VALID,102.582,VALID,0,VALID,24.0624,VALID,115,VALID,1.0082,
2010-08-05, 00:43:04,VALID,1010.18,VALID,0,VALID,102.566,VALID,0.105969,VALID,24.0819,VALID,89,VALID,0.592188,
2010-08-05, 00:44:04,VALID,1010.2,VALID,0,VALID,102.566,VALID,0.105969,VALID,24.0819,VALID,82,VALID,0.747266,
2010-08-05, 00:45:04,VALID,1010.21,VALID,0,VALID,102.566,VALID,0,VALID,24.0819,VALID,93,VALID,0.635156,
2010-08-05, 00:46:04,VALID,1010.2,VALID,0,VALID,102.528,VALID,0,VALID,24.0624,VALID,81,VALID,0.8625,
2010-08-05, 00:47:04,VALID,1010.21,VALID,0,VALID,102.498,VALID,0.105969,VALID,24.0624,VALID,82,VALID,0.757422,
2010-08-05, 00:48:04,VALID,1010.19,VALID,0,VALID,102.467,VALID,0.105969,VALID,24.0429,VALID,92,VALID,0.363672,
2010-08-05, 00:49:04,VALID,1010.21,VALID,0,VALID,102.498,VALID,0,VALID,24.0429,VALID,130,VALID,1.04961,
2010-08-05, 00:50:04,VALID,1010.19,VALID,0,VALID,102.49,VALID,0,VALID,24.0448,VALID,126,VALID,1.51445,
2010-08-05, 00:51:04,VALID,1010.16,VALID,0,VALID,102.467,VALID,0,VALID,24.0643,VALID,154,VALID,0.597656,
2010-08-05, 00:52:04,VALID,1010.14,VALID,0,VALID,102.467,VALID,0,VALID,24.0235,VALID,141,VALID,0.975,
2010-08-05, 00:53:04,VALID,1010.15,VALID,0,VALID,102.46,VALID,0.105969,VALID,24.004,VALID,137,VALID,0.795703,
2010-08-05, 00:54:04,VALID,1010.16,VALID,0,VALID,102.437,VALID,0.105969,VALID,24.004,VALID,133,VALID,1.06758,
2010-08-05, 00:55:04,VALID,1010.16,VALID,0,VALID,102.49,VALID,0,VALID,24.0253,VALID,156,VALID,0.709766,
2010-08-05, 00:56:04,VALID,1010.15,VALID,0,VALID,102.521,VALID,0,VALID,24.0253,VALID,164,VALID,0.395703,
2010-08-05, 00:57:04,VALID,1010.14,VALID,0,VALID,102.551,VALID,0.105969,VALID,24.004,VALID,164,VALID,0.197266,
2010-08-05, 00:58:04,VALID,1010.14,VALID,0,VALID,102.597,VALID,0,VALID,24.004,VALID,164,VALID,0.264062,
2010-08-05, 00:59:04,VALID,1010.16,VALID,0,VALID,102.597,VALID,0.105969,VALID,24.0253,VALID,154,VALID,0.598437,
2010-08-05, 01:00:04,VALID,1010.16,VALID,0,VALID,102.627,VALID,0.105969,VALID,24.004,VALID,134,VALID,0.892187,
2010-08-05, 01:01:04,VALID,1010.12,VALID,0,VALID,102.666,VALID,0,VALID,24.004,VALID,123,VALID,0.789063,
2010-08-05, 01:02:04,VALID,1010.11,VALID,0,VALID,102.681,VALID,0,VALID,24.0253,VALID,127,VALID,0.683594,
2010-08-05, 01:03:04,VALID,1010.13,VALID,0,VALID,102.704,VALID,0.105969,VALID,24.0235,VALID,133,VALID,0.328125,
2010-08-05, 01:04:04,VALID,1010.14,VALID,0,VALID,102.688,VALID,0,VALID,24.0448,VALID,148,VALID,0.593359,
2010-08-05, 01:05:04,VALID,1010.14,VALID,0,VALID,102.727,VALID,0,VALID,24.0253,VALID,162,VALID,0.738281,
2010-08-05, 01:06:04,VALID,1010.1,VALID,0,VALID,102.711,VALID,0.105969,VALID,24.0253,VALID,145,VALID,0.470703,
2010-08-05, 01:07:04,VALID,1010.05,VALID,0,VALID,102.719,VALID,0.105969,VALID,24.004,VALID,149,VALID,0.717188,
2010-08-05, 01:08:04,VALID,1010.07,VALID,0,VALID,102.711,VALID,0,VALID,24.0253,VALID,150,VALID,0.904297,
2010-08-05, 01:09:04,VALID,1010.02,VALID,0,VALID,102.704,VALID,0,VALID,24.0253,VALID,151,VALID,0.779688,
2010-08-05, 01:10:04,VALID,1010.02,VALID,0,VALID,102.704,VALID,0,VALID,24.0058,VALID,167,VALID,0.880859,
2010-08-05, 01:11:04,VALID,1010.02,VALID,0,VALID,102.734,VALID,0,VALID,24.0253,VALID,175,VALID,1.01797,
2010-08-05, 01:12:04,VALID,1010,VALID,0,VALID,102.727,VALID,0,VALID,24.0253,VALID,162,VALID,0.767969,
2010-08-05, 01:13:04,VALID,1009.98,VALID,0,VALID,102.727,VALID,0,VALID,24.0253,VALID,159,VALID,0.957812,
2010-08-05, 01:14:04,VALID,1009.97,VALID,0,VALID,102.734,VALID,0,VALID,24.0448,VALID,162,VALID,0.751172,
2010-08-05, 01:15:04,VALID,1009.96,VALID,0,VALID,102.749,VALID,0,VALID,24.0643,VALID,136,VALID,0.570313,
2010-08-05, 01:16:04,VALID,1009.95,VALID,0,VALID,102.772,VALID,0,VALID,24.0837,VALID,149,VALID,0.683203,
2010-08-05, 01:17:04,VALID,1009.95,VALID,0,VALID,102.742,VALID,0,VALID,24.0837,VALID,155,VALID,0.528906,
2010-08-05, 01:18:04,VALID,1009.97,VALID,0,VALID,102.742,VALID,0,VALID,24.0624,VALID,174,VALID,1.08516,
2010-08-05, 01:19:04,VALID,1009.96,VALID,0,VALID,102.704,VALID,0,VALID,24.1032,VALID,148,VALID,0.700391,
2010-08-05, 01:20:04,VALID,1009.97,VALID,0,VALID,102.688,VALID,0,VALID,24.0837,VALID,146,VALID,0.881641,
2010-08-05, 01:21:04,VALID,1009.97,VALID,0,VALID,102.65,VALID,0,VALID,24.1032,VALID,146,VALID,0.929297,
2010-08-05, 01:22:04,VALID,1009.97,VALID,0,VALID,102.635,VALID,0.105969,VALID,24.1014,VALID,149,VALID,0.832422,
2010-08-05, 01:23:04,VALID,1009.94,VALID,0,VALID,102.597,VALID,0,VALID,24.1227,VALID,158,VALID,0.891016,
2010-08-05, 01:24:04,VALID,1009.93,VALID,0,VALID,102.582,VALID,0,VALID,24.1227,VALID,160,VALID,0.58125,
2010-08-05, 01:25:04,VALID,1009.97,VALID,0,VALID,102.528,VALID,0,VALID,24.1209,VALID,170,VALID,0.578906,
2010-08-05, 01:26:04,VALID,1009.95,VALID,0,VALID,102.551,VALID,0,VALID,24.1014,VALID,162,VALID,1.13437,
2010-08-05, 01:27:04,VALID,1009.92,VALID,0,VALID,102.521,VALID,0,VALID,24.1227,VALID,158,VALID,1.11445,
2010-08-05, 01:28:04,VALID,1009.88,VALID,0,VALID,102.505,VALID,0.105969,VALID,24.1209,VALID,126,VALID,1.34414,
2010-08-05, 01:29:04,VALID,1009.85,VALID,0,VALID,102.475,VALID,0,VALID,24.1422,VALID,165,VALID,1.30234,
2010-08-05, 01:30:04,VALID,1009.84,VALID,0,VALID,102.444,VALID,0,VALID,24.1422,VALID,118,VALID,1.44453,
2010-08-05, 01:31:04,VALID,1009.83,VALID,0,VALID,102.406,VALID,0,VALID,24.1404,VALID,146,VALID,1.1957,
2010-08-05, 01:32:04,VALID,1009.83,VALID,0,VALID,102.391,VALID,0.105969,VALID,24.1404,VALID,177,VALID,1.4918,
2010-08-05, 01:33:04,VALID,1009.83,VALID,0,VALID,102.33,VALID,0,VALID,24.1404,VALID,155,VALID,1.05195,
2010-08-05, 01:34:04,VALID,1009.83,VALID,0,VALID,102.33,VALID,0,VALID,24.1404,VALID,143,VALID,0.983594,
2010-08-05, 01:35:04,VALID,1009.81,VALID,0,VALID,102.315,VALID,0,VALID,24.1404,VALID,145,VALID,1.15313,
2010-08-05, 01:36:04,VALID,1009.78,VALID,0,VALID,102.307,VALID,0.105969,VALID,24.1404,VALID,161,VALID,1.06875,
2010-08-05, 01:37:04,VALID,1009.78,VALID,0,VALID,102.277,VALID,0,VALID,24.1422,VALID,156,VALID,1.10664,
2010-08-05, 01:38:04,VALID,1009.78,VALID,0,VALID,102.284,VALID,0,VALID,24.1422,VALID,148,VALID,0.847266,
2010-08-05, 01:39:04,VALID,1009.78,VALID,0,VALID,102.307,VALID,0.105969,VALID,24.1617,VALID,137,VALID,1.20352,
2010-08-05, 01:40:04,VALID,1009.73,VALID,0,VALID,102.307,VALID,0,VALID,24.1227,VALID,166,VALID,1.25352,
2010-08-05, 01:41:04,VALID,1009.74,VALID,0,VALID,102.315,VALID,0,VALID,24.1209,VALID,149,VALID,1.28867,
2010-08-05, 01:42:04,VALID,1009.75,VALID,0,VALID,102.299,VALID,0,VALID,24.1227,VALID,138,VALID,1.43359,
2010-08-05, 01:43:04,VALID,1009.77,VALID,0,VALID,102.284,VALID,0.105969,VALID,24.1422,VALID,136,VALID,1.64766,
2010-08-05, 01:44:04,VALID,1009.76,VALID,0,VALID,102.284,VALID,0,VALID,24.1422,VALID,133,VALID,1.47852,
2010-08-05, 01:45:04,VALID,1009.75,VALID,0,VALID,102.299,VALID,0.105969,VALID,24.1209,VALID,151,VALID,0.819141,
2010-08-05, 01:46:04,VALID,1009.7,VALID,0,VALID,102.315,VALID,0,VALID,24.1209,VALID,151,VALID,0.961328,
2010-08-05, 01:47:04,VALID,1009.69,VALID,0,VALID,102.269,VALID,0,VALID,24.1422,VALID,165,VALID,1.74023,
2010-08-05, 01:48:04,VALID,1009.69,VALID,0,VALID,102.246,VALID,0,VALID,24.1227,VALID,153,VALID,1.47539,
2010-08-05, 01:49:04,VALID,1009.66,VALID,0,VALID,102.223,VALID,0.105969,VALID,24.1422,VALID,158,VALID,1.3457,
2010-08-05, 01:50:04,VALID,1009.65,VALID,0,VALID,102.284,VALID,0.105969,VALID,24.1404,VALID,143,VALID,0.949609,
2010-08-05, 01:51:04,VALID,1009.64,VALID,0,VALID,102.261,VALID,0,VALID,24.1209,VALID,149,VALID,1.48242,
2010-08-05, 01:52:04,VALID,1009.63,VALID,0,VALID,102.208,VALID,0,VALID,24.1209,VALID,154,VALID,1.04766,
2010-08-05, 01:53:04,VALID,1009.6,VALID,0,VALID,102.216,VALID,0.105969,VALID,24.1014,VALID,143,VALID,1.21328,
2010-08-05, 01:54:04,VALID,1009.62,VALID,0,VALID,102.2,VALID,0.105969,VALID,24.1014,VALID,130,VALID,0.994531,
2010-08-05, 01:55:04,VALID,1009.63,VALID,0,VALID,102.208,VALID,0,VALID,24.1422,VALID,136,VALID,0.791016,
2010-08-05, 01:56:04,VALID,1009.63,VALID,0,VALID,102.238,VALID,0.105969,VALID,24.1209,VALID,126,VALID,1.03437,
2010-08-05, 01:57:04,VALID,1009.61,VALID,0,VALID,102.299,VALID,0.105969,VALID,24.1404,VALID,92,VALID,0.880469,
2010-08-05, 01:58:04,VALID,1009.63,VALID,0,VALID,102.284,VALID,0,VALID,24.1209,VALID,110,VALID,0.950391,
2010-08-05, 01:59:04,VALID,1009.65,VALID,0,VALID,102.33,VALID,0,VALID,24.1404,VALID,119,VALID,0.841797,
2010-08-05, 02:00:04,VALID,1009.63,VALID,0,VALID,102.299,VALID,0,VALID,24.1404,VALID,92,VALID,0.936719,
2010-08-05, 02:01:04,VALID,1009.65,VALID,0,VALID,102.238,VALID,0.105969,VALID,24.1209,VALID,105,VALID,1.13906,
2010-08-05, 02:02:04,VALID,1009.64,VALID,0,VALID,102.177,VALID,0,VALID,24.1209,VALID,98,VALID,1.52344,
2010-08-05, 02:03:04,VALID,1009.67,VALID,0,VALID,102.155,VALID,0.105969,VALID,24.1209,VALID,125,VALID,1.35547,
2010-08-05, 02:04:04,VALID,1009.65,VALID,0,VALID,102.162,VALID,0.105969,VALID,24.1209,VALID,108,VALID,1.37734,
2010-08-05, 02:05:04,VALID,1009.64,VALID,0,VALID,102.2,VALID,0,VALID,24.1422,VALID,114,VALID,1.31016,
2010-08-05, 02:06:04,VALID,1009.61,VALID,0,VALID,102.208,VALID,0,VALID,24.1209,VALID,102,VALID,0.903125,
2010-08-05, 02:07:04,VALID,1009.59,VALID,0,VALID,102.2,VALID,0,VALID,24.1209,VALID,120,VALID,0.983984,
2010-08-05, 02:08:04,VALID,1009.57,VALID,0,VALID,102.254,VALID,0.105969,VALID,24.1209,VALID,87,VALID,0.919531,
2010-08-05, 02:09:04,VALID,1009.56,VALID,0,VALID,102.185,VALID,0.105969,VALID,24.1014,VALID,108,VALID,1.75859,
2010-08-05, 02:10:04,VALID,1009.54,VALID,0,VALID,102.147,VALID,0,VALID,24.0819,VALID,87,VALID,1.22773,
2010-08-05, 02:11:04,VALID,1009.55,VALID,0,VALID,102.116,VALID,0,VALID,24.0819,VALID,114,VALID,1.34414,
2010-08-05, 02:12:04,VALID,1009.55,VALID,0,VALID,102.216,VALID,0,VALID,24.1014,VALID,118,VALID,0.935938,
2010-08-05, 02:13:04,VALID,1009.54,VALID,0,VALID,102.223,VALID,0.105969,VALID,24.1014,VALID,126,VALID,1.10781,
2010-08-05, 02:14:04,VALID,1009.54,VALID,0,VALID,102.238,VALID,0,VALID,24.1227,VALID,125,VALID,1.31289,
2010-08-05, 02:15:04,VALID,1009.55,VALID,0,VALID,102.246,VALID,0.105969,VALID,24.1032,VALID,123,VALID,0.955469,
2010-08-05, 02:16:04,VALID,1009.56,VALID,0,VALID,102.292,VALID,0,VALID,24.1032,VALID,127,VALID,1.20117,
2010-08-05, 02:17:04,VALID,1009.55,VALID,0,VALID,102.254,VALID,0.105969,VALID,24.0819,VALID,106,VALID,1.21641,
2010-08-05, 02:18:04,VALID,1009.54,VALID,0,VALID,102.208,VALID,0,VALID,24.0819,VALID,144,VALID,1.34375,
2010-08-05, 02:19:04,VALID,1009.54,VALID,0,VALID,102.124,VALID,0.105969,VALID,24.0624,VALID,137,VALID,1.46094,
2010-08-05, 02:20:04,VALID,1009.54,VALID,0,VALID,102.078,VALID,0,VALID,24.0235,VALID,146,VALID,1.78047,
2010-08-05, 02:21:04,VALID,1009.53,VALID,0,VALID,102.078,VALID,0.105969,VALID,24.0235,VALID,142,VALID,1.38594,
2010-08-05, 02:22:04,VALID,1009.49,VALID,0,VALID,102.055,VALID,0,VALID,24.0235,VALID,163,VALID,1.46211,
2010-08-05, 02:23:04,VALID,1009.48,VALID,0,VALID,101.987,VALID,0.105969,VALID,24.004,VALID,122,VALID,1.59727,
2010-08-05, 02:24:04,VALID,1009.43,VALID,0,VALID,101.781,VALID,0.105969,VALID,24.004,VALID,127,VALID,2.29258,
2010-08-05, 02:25:04,VALID,1009.39,VALID,0,VALID,101.651,VALID,0.105969,VALID,24.004,VALID,113,VALID,1.2832,
2010-08-05, 02:26:04,VALID,1009.39,VALID,0,VALID,101.583,VALID,0.105969,VALID,24.004,VALID,129,VALID,1.58047,
2010-08-05, 02:27:04,VALID,1009.37,VALID,0,VALID,101.476,VALID,0.105969,VALID,23.9845,VALID,124,VALID,1.81445,
2010-08-05, 02:28:04,VALID,1009.32,VALID,0,VALID,101.43,VALID,0.105969,VALID,24.004,VALID,129,VALID,1.7125,
2010-08-05, 02:29:04,VALID,1009.33,VALID,0,VALID,101.369,VALID,0,VALID,24.004,VALID,125,VALID,1.35664,
2010-08-05, 02:30:04,VALID,1009.3,VALID,0,VALID,101.224,VALID,0,VALID,23.9845,VALID,121,VALID,2.05977,
2010-08-05, 02:31:04,VALID,1009.31,VALID,0,VALID,101.163,VALID,0,VALID,24.0058,VALID,141,VALID,1.78828,
2010-08-05, 02:32:04,VALID,1009.32,VALID,0,VALID,101.133,VALID,0.105969,VALID,23.965,VALID,158,VALID,1.05313,
2010-08-05, 02:33:04,VALID,1009.3,VALID,0,VALID,101.209,VALID,0,VALID,23.9863,VALID,125,VALID,1.38008,
2010-08-05, 02:34:04,VALID,1009.3,VALID,0,VALID,101.316,VALID,0,VALID,23.965,VALID,134,VALID,1.23867,
2010-08-05, 02:35:04,VALID,1009.3,VALID,0,VALID,101.453,VALID,0.105969,VALID,23.9455,VALID,130,VALID,0.666797,
2010-08-05, 02:36:04,VALID,1009.28,VALID,0,VALID,101.445,VALID,0.105969,VALID,23.926,VALID,137,VALID,0.910156,
2010-08-05, 02:37:04,VALID,1009.33,VALID,0,VALID,101.491,VALID,0.105969,VALID,23.9455,VALID,115,VALID,0.909375,
2010-08-05, 02:38:04,VALID,1009.27,VALID,0,VALID,101.354,VALID,0.105969,VALID,23.926,VALID,146,VALID,1.18516,
2010-08-05, 02:39:04,VALID,1009.32,VALID,0,VALID,101.331,VALID,0,VALID,23.9278,VALID,138,VALID,1.45234,
2010-08-05, 02:40:04,VALID,1009.29,VALID,0,VALID,101.392,VALID,0,VALID,23.9473,VALID,149,VALID,1.26563,
2010-08-05, 02:41:04,VALID,1009.32,VALID,0,VALID,101.377,VALID,0,VALID,23.926,VALID,148,VALID,0.865234,
2010-08-05, 02:42:04,VALID,1009.31,VALID,0,VALID,101.415,VALID,0,VALID,23.926,VALID,143,VALID,1.02891,
2010-08-05, 02:43:04,VALID,1009.3,VALID,0,VALID,101.43,VALID,0.105969,VALID,23.9065,VALID,137,VALID,0.844141,
2010-08-05, 02:44:04,VALID,1009.32,VALID,0,VALID,101.514,VALID,0.105969,VALID,23.9065,VALID,106,VALID,0.889844,
2010-08-05, 02:45:04,VALID,1009.34,VALID,0,VALID,101.552,VALID,0,VALID,23.9278,VALID,123,VALID,1.10547,
2010-08-05, 02:46:04,VALID,1009.35,VALID,0,VALID,101.499,VALID,0.105969,VALID,23.9065,VALID,127,VALID,1.44648,
2010-08-05, 02:47:04,VALID,1009.31,VALID,0,VALID,101.552,VALID,0.105969,VALID,23.9065,VALID,144,VALID,1.18047,
2010-08-05, 02:48:04,VALID,1009.3,VALID,0,VALID,101.567,VALID,0,VALID,23.9065,VALID,127,VALID,1.16992,
2010-08-05, 02:49:04,VALID,1009.28,VALID,0,VALID,101.529,VALID,0,VALID,23.9065,VALID,140,VALID,1.08125,
2010-08-05, 02:50:04,VALID,1009.3,VALID,0,VALID,101.56,VALID,0,VALID,23.9102,VALID,131,VALID,1.32266,
2010-08-05, 02:51:04,VALID,1009.28,VALID,0,VALID,101.598,VALID,0,VALID,23.9102,VALID,151,VALID,0.889844,
2010-08-05, 02:52:04,VALID,1009.27,VALID,0,VALID,101.636,VALID,0,VALID,23.8889,VALID,117,VALID,1.30117,
2010-08-05, 02:53:04,VALID,1009.3,VALID,0,VALID,101.628,VALID,0,VALID,23.8907,VALID,131,VALID,1.27109,
2010-08-05, 02:54:04,VALID,1009.32,VALID,0,VALID,101.682,VALID,0,VALID,23.8694,VALID,129,VALID,1.0793,
2010-08-05, 02:55:04,VALID,1009.34,VALID,0,VALID,101.689,VALID,0,VALID,23.8694,VALID,126,VALID,1.28594,
2010-08-05, 02:56:04,VALID,1009.36,VALID,0,VALID,101.644,VALID,0,VALID,23.8499,VALID,122,VALID,1.56133,
2010-08-05, 02:57:04,VALID,1009.33,VALID,0,VALID,101.674,VALID,0,VALID,23.8694,VALID,150,VALID,0.888672,
2010-08-05, 02:58:04,VALID,1009.36,VALID,0,VALID,101.743,VALID,0,VALID,23.8889,VALID,141,VALID,1.22266,
2010-08-05, 02:59:04,VALID,1009.33,VALID,0,VALID,101.804,VALID,0,VALID,23.8889,VALID,124,VALID,0.496875,
2010-08-05, 03:00:04,VALID,1009.35,VALID,0,VALID,101.796,VALID,0,VALID,23.9102,VALID,135,VALID,1.40078,
2010-08-05, 03:01:04,VALID,1009.39,VALID,0,VALID,101.743,VALID,0,VALID,23.8694,VALID,106,VALID,0.989453,
2010-08-05, 03:02:04,VALID,1009.4,VALID,0,VALID,101.773,VALID,0,VALID,23.8694,VALID,97,VALID,0.442187,
2010-08-05, 03:03:04,VALID,1009.41,VALID,0,VALID,101.85,VALID,0,VALID,23.8694,VALID,97,VALID,0.524219,
2010-08-05, 03:04:04,VALID,1009.4,VALID,0,VALID,101.872,VALID,0,VALID,23.8694,VALID,130,VALID,0.740234,
2010-08-05, 03:05:04,VALID,1009.41,VALID,0,VALID,101.842,VALID,0,VALID,23.8694,VALID,117,VALID,0.6375,
2010-08-05, 03:06:04,VALID,1009.42,VALID,0,VALID,101.857,VALID,0,VALID,23.8694,VALID,103,VALID,1.08867,
2010-08-05, 03:07:04,VALID,1009.42,VALID,0,VALID,101.865,VALID,0,VALID,23.8694,VALID,109,VALID,1.0082,
2010-08-05, 03:08:04,VALID,1009.46,VALID,0,VALID,101.819,VALID,0,VALID,23.8907,VALID,96,VALID,1.49375,
2010-08-05, 03:09:04,VALID,1009.46,VALID,0,VALID,101.834,VALID,0,VALID,23.8907,VALID,111,VALID,0.708203,
2010-08-05, 03:10:04,VALID,1009.48,VALID,0,VALID,101.834,VALID,0,VALID,23.8694,VALID,110,VALID,0.930078,
2010-08-05, 03:11:04,VALID,1009.48,VALID,0,VALID,101.796,VALID,0,VALID,23.8907,VALID,110,VALID,1.22148,
2010-08-05, 03:12:04,VALID,1009.5,VALID,0,VALID,101.834,VALID,0,VALID,23.8907,VALID,125,VALID,0.409766,
2010-08-05, 03:13:04,VALID,1009.49,VALID,0,VALID,101.888,VALID,0,VALID,23.8907,VALID,104,VALID,0.768359,
2010-08-05, 03:14:04,VALID,1009.49,VALID,0,VALID,101.903,VALID,0,VALID,23.8694,VALID,123,VALID,1.07813,
2010-08-05, 03:15:04,VALID,1009.48,VALID,0,VALID,101.796,VALID,0,VALID,23.8712,VALID,104,VALID,1.025,
2010-08-05, 03:16:04,VALID,1009.48,VALID,0,VALID,101.827,VALID,0,VALID,23.8907,VALID,139,VALID,1.17266,
2010-08-05, 03:17:04,VALID,1009.47,VALID,0,VALID,101.796,VALID,0,VALID,23.8499,VALID,129,VALID,1.4957,
2010-08-05, 03:18:04,VALID,1009.49,VALID,0,VALID,101.728,VALID,0,VALID,23.8322,VALID,126,VALID,1.35781,
2010-08-05, 03:19:04,VALID,1009.5,VALID,0,VALID,101.621,VALID,0,VALID,23.8109,VALID,111,VALID,1.2957,
2010-08-05, 03:20:04,VALID,1009.5,VALID,0,VALID,101.651,VALID,0,VALID,23.8073,VALID,138,VALID,1.37812,
2010-08-05, 03:21:04,VALID,1009.51,VALID,0,VALID,101.468,VALID,0,VALID,23.8091,VALID,120,VALID,1.24414,
2010-08-05, 03:22:04,VALID,1009.5,VALID,0,VALID,101.56,VALID,0.105969,VALID,23.8304,VALID,144,VALID,1.01992,
2010-08-05, 03:23:04,VALID,1009.56,VALID,0,VALID,101.628,VALID,0,VALID,23.8304,VALID,116,VALID,0.761328,
2010-08-05, 03:24:04,VALID,1009.55,VALID,0,VALID,101.651,VALID,0,VALID,23.8304,VALID,145,VALID,0.852344,
2010-08-05, 03:25:04,VALID,1009.57,VALID,0,VALID,101.689,VALID,0.105969,VALID,23.8091,VALID,133,VALID,0.539453,
2010-08-05, 03:26:04,VALID,1009.56,VALID,0,VALID,101.659,VALID,0.105969,VALID,23.8109,VALID,106,VALID,0.706641,
2010-08-05, 03:27:04,VALID,1009.6,VALID,0,VALID,101.621,VALID,0,VALID,23.8304,VALID,115,VALID,1.11758,
2010-08-05, 03:28:04,VALID,1009.61,VALID,0,VALID,101.567,VALID,0,VALID,23.8091,VALID,99,VALID,0.995313,
2010-08-05, 03:29:04,VALID,1009.59,VALID,0,VALID,101.506,VALID,0,VALID,23.7896,VALID,107,VALID,1.07109,
2010-08-05, 03:30:04,VALID,1009.6,VALID,0,VALID,101.537,VALID,0,VALID,23.7896,VALID,122,VALID,0.786719,
2010-08-05, 03:31:04,VALID,1009.59,VALID,0,VALID,101.545,VALID,0.105969,VALID,23.7896,VALID,91,VALID,1.22734,
2010-08-05, 03:32:04,VALID,1009.61,VALID,0,VALID,101.423,VALID,0,VALID,23.7896,VALID,129,VALID,1.03203,
2010-08-05, 03:33:04,VALID,1009.58,VALID,0,VALID,101.339,VALID,0,VALID,23.7701,VALID,132,VALID,1.56602,
2010-08-05, 03:34:04,VALID,1009.59,VALID,0,VALID,101.102,VALID,0,VALID,23.7914,VALID,141,VALID,1.35977,
2010-08-05, 03:35:04,VALID,1009.59,VALID,0,VALID,101.125,VALID,0,VALID,23.7701,VALID,140,VALID,1.49141,
2010-08-05, 03:36:04,VALID,1009.58,VALID,0,VALID,101.117,VALID,0,VALID,23.7507,VALID,124,VALID,0.882813,
2010-08-05, 03:37:04,VALID,1009.59,VALID,0,VALID,101.293,VALID,0,VALID,23.7507,VALID,118,VALID,1.0168,
2010-08-05, 03:38:04,VALID,1009.61,VALID,0,VALID,101.247,VALID,0,VALID,23.7525,VALID,133,VALID,1.46992,
2010-08-05, 03:39:04,VALID,1009.55,VALID,0,VALID,101.064,VALID,0.105969,VALID,23.7525,VALID,121,VALID,1.18281,
2010-08-05, 03:40:04,VALID,1009.58,VALID,0,VALID,101.087,VALID,0,VALID,23.7312,VALID,139,VALID,1.08281,
2010-08-05, 03:41:04,VALID,1009.57,VALID,0,VALID,101.209,VALID,0.105969,VALID,23.7117,VALID,141,VALID,0.834375,